Location: Burgberg
(50.1428°N, 11.0671°E)
Time: 11:20:33
(UTC+00:00)

STARLINK-1048 - Pass Details

Date: 26 January 2020
Orbit: 377 x 383 km, 53.0° (Epoch: 19 February)

Event Time Altitude Azimuth Distance (km) Brightness Sun altitude
Exits shadow 04:55:44 59° 166° (SSE) 429 3.1 -19.5°
Drops below altitude 10° 04:58:51 10° 72° (ENE) 1,369 6.6 -19.0°
Enters shadow 05:53:09 -72° 254° (WSW) 12,490 10.4 -10.5°
Maximum altitude 06:31:32 50° 353° (N) 483 3.2 -4.7°
